Saint Bonnet de Bellac- Haute Vienne - France
Donnes mto: vendredi, 27/07/2012
Date Horaire Temp. E. Hum. E. P.atmo. Pluie Vent Direction Direction Ensoleilleme Solaire P. de rose Temp au vent Rafales
27/07/2012 00:00 24,8 C 65 % 1012,6 hPa 0,0 mm 0,0 km/h (0 Bft) SE 135 0 min 0 W/m 17,8 C 24,8 C 0,0 km/h (0 Bft)
27/07/2012 00:10 24,7 C 66 % 1012,7 hPa 0,0 mm 0,4 km/h (0 Bft) NE 45 0 min 0 W/m 17,9 C 24,7 C 0,4 km/h (0 Bft)
27/07/2012 00:20 24,6 C 66 % 1012,6 hPa 0,0 mm 0,0 km/h (0 Bft) E-NE 67 0 min 0 W/m 17,8 C 24,6 C 0,0 km/h (0 Bft)
27/07/2012 00:30 24,8 C 66 % 1012,6 hPa 0,0 mm 0,0 km/h (0 Bft) E-SE 112 0 min 0 W/m 18,0 C 24,8 C 0,0 km/h (0 Bft)
27/07/2012 00:40 24,8 C 66 % 1012,6 hPa 0,0 mm 4,3 km/h (1 Bft) E 90 0 min 0 W/m 18,0 C 24,8 C 6,5 km/h (2 Bft)
27/07/2012 00:50 24,8 C 67 % 1012,7 hPa 0,0 mm 2,2 km/h (1 Bft) E-SE 112 0 min 0 W/m 18,2 C 24,8 C 4,0 km/h (1 Bft)
27/07/2012 01:00 24,8 C 67 % 1012,8 hPa 0,0 mm 0,4 km/h (0 Bft) E 90 0 min 0 W/m 18,2 C 24,8 C 3,6 km/h (1 Bft)
27/07/2012 01:10 24,6 C 68 % 1012,7 hPa 0,0 mm 0,0 km/h (0 Bft) E-SE 112 0 min 0 W/m 18,3 C 24,6 C 3,2 km/h (1 Bft)
27/07/2012 01:20 24,4 C 69 % 1012,8 hPa 0,0 mm 3,2 km/h (1 Bft) E-SE 112 0 min 0 W/m 18,3 C 24,4 C 6,1 km/h (2 Bft)
27/07/2012 01:30 24,3 C 70 % 1012,8 hPa 0,0 mm 1,1 km/h (1 Bft) E-SE 112 0 min 0 W/m 18,5 C 24,3 C 1,1 km/h (1 Bft)
27/07/2012 01:40 24,2 C 70 % 1012,8 hPa 0,0 mm 3,6 km/h (1 Bft) E 90 0 min 0 W/m 18,4 C 24,2 C 4,3 km/h (1 Bft)
27/07/2012 01:50 24,1 C 71 % 1012,8 hPa 0,0 mm 0,0 km/h (0 Bft) E-SE 112 0 min 0 W/m 18,5 C 24,1 C 0,0 km/h (0 Bft)
27/07/2012 02:00 23,9 C 70 % 1012,8 hPa 0,0 mm 0,4 km/h (0 Bft) E 90 0 min 0 W/m 18,1 C 23,9 C 2,9 km/h (1 Bft)
27/07/2012 02:10 23,8 C 72 % 1012,7 hPa 0,0 mm 6,5 km/h (2 Bft) S-SE 157 0 min 0 W/m 18,4 C 23,8 C 12,6 km/h (3 Bft)
27/07/2012 02:20 23,4 C 74 % 1012,6 hPa 0,0 mm 1,8 km/h (1 Bft) E-SE 112 0 min 0 W/m 18,5 C 23,4 C 3,6 km/h (1 Bft)
27/07/2012 02:30 23,1 C 74 % 1012,6 hPa 0,0 mm 2,5 km/h (1 Bft) E 90 0 min 0 W/m 18,2 C 23,1 C 6,1 km/h (2 Bft)
27/07/2012 02:40 23,1 C 74 % 1012,6 hPa 0,0 mm 0,0 km/h (0 Bft) E-SE 112 0 min 0 W/m 18,2 C 23,1 C 0,0 km/h (0 Bft)
27/07/2012 02:50 22,9 C 74 % 1012,6 hPa 0,0 mm 0,0 km/h (0 Bft) NE 45 0 min 0 W/m 18,0 C 22,9 C 0,0 km/h (0 Bft)
27/07/2012 03:02 22,8 C 75 % 1012,6 hPa 0,0 mm 1,4 km/h (1 Bft) E 90 0 min 0 W/m 18,1 C 22,8 C 3,2 km/h (1 Bft)
27/07/2012 03:10 22,5 C 75 % 1012,5 hPa 0,0 mm 2,9 km/h (1 Bft) E-SE 112 0 min 0 W/m 17,8 C 22,5 C 3,6 km/h (1 Bft)
27/07/2012 03:20 22,4 C 75 % 1012,5 hPa 0,0 mm 0,7 km/h (0 Bft) E-NE 67 0 min 0 W/m 17,7 C 22,4 C 4,3 km/h (1 Bft)
27/07/2012 03:30 22,2 C 75 % 1012,5 hPa 0,0 mm 0,4 km/h (0 Bft) NE 45 0 min 0 W/m 17,5 C 22,2 C 0,4 km/h (0 Bft)
27/07/2012 03:40 21,9 C 76 % 1012,6 hPa 0,0 mm 1,8 km/h (1 Bft) E-SE 112 0 min 0 W/m 17,5 C 21,9 C 3,6 km/h (1 Bft)
27/07/2012 03:50 21,7 C 77 % 1012,4 hPa 0,0 mm 2,9 km/h (1 Bft) E 90 0 min 0 W/m 17,5 C 21,7 C 3,2 km/h (1 Bft)
27/07/2012 04:00 21,6 C 76 % 1012,3 hPa 0,0 mm 4,0 km/h (1 Bft) E 90 0 min 0 W/m 17,2 C 21,6 C 4,0 km/h (1 Bft)
27/07/2012 04:10 21,6 C 75 % 1012,4 hPa 0,0 mm 2,2 km/h (1 Bft) SE 135 0 min 0 W/m 17,0 C 21,6 C 6,5 km/h (2 Bft)
27/07/2012 04:20 21,5 C 75 % 1013,2 hPa 0,0 mm 2,2 km/h (1 Bft) N 360 0 min 0 W/m 16,9 C 21,5 C 2,2 km/h (1 Bft)
27/07/2012 04:30 21,6 C 74 % 1012,8 hPa 0,0 mm 2,9 km/h (1 Bft) SO 225 0 min 0 W/m 16,8 C 21,6 C 4,3 km/h (1 Bft)
27/07/2012 04:40 21,7 C 73 % 1013,0 hPa 0,0 mm 0,0 km/h (0 Bft) SO 225 0 min 0 W/m 16,6 C 21,7 C 0,0 km/h (0 Bft)
27/07/2012 04:50 21,6 C 72 % 1012,7 hPa 0,0 mm 0,0 km/h (0 Bft) O-SO 247 0 min 0 W/m 16,3 C 21,6 C 0,0 km/h (0 Bft)
27/07/2012 05:00 21,6 C 71 % 1012,7 hPa 0,0 mm 0,0 km/h (0 Bft) O-SO 247 0 min 0 W/m 16,1 C 21,6 C 0,0 km/h (0 Bft)
27/07/2012 05:10 21,6 C 71 % 1012,9 hPa 0,0 mm 0,0 km/h (0 Bft) SO 225 0 min 0 W/m 16,1 C 21,6 C 0,0 km/h (0 Bft)
27/07/2012 05:20 21,6 C 72 % 1012,9 hPa 0,0 mm 2,5 km/h (1 Bft) SO 225 0 min 0 W/m 16,3 C 21,6 C 4,0 km/h (1 Bft)
27/07/2012 05:30 21,8 C 73 % 1012,8 hPa 0,0 mm 1,8 km/h (1 Bft) SO 225 0 min 0 W/m 16,7 C 21,8 C 4,7 km/h (1 Bft)
27/07/2012 05:40 21,9 C 72 % 1012,3 hPa 0,0 mm 0,0 km/h (0 Bft) O-SO 247 0 min 0 W/m 16,6 C 21,9 C 0,0 km/h (0 Bft)
27/07/2012 05:50 21,9 C 72 % 1010,8 hPa 0,0 mm 0,0 km/h (0 Bft) NE 45 0 min 0 W/m 16,6 C 21,9 C 0,0 km/h (0 Bft)
27/07/2012 06:00 21,7 C 73 % 1011,6 hPa 0,0 mm 0,0 km/h (0 Bft) S-SO 202 0 min 0 W/m 16,6 C 21,7 C 0,0 km/h (0 Bft)
27/07/2012 06:10 21,6 C 74 % 1011,6 hPa 0,0 mm 0,0 km/h (0 Bft) E 90 0 min 0 W/m 16,8 C 21,6 C 0,0 km/h (0 Bft)
27/07/2012 06:20 21,6 C 73 % 1011,8 hPa 0,0 mm 1,1 km/h (1 Bft) E 90 0 min 0 W/m 16,5 C 21,6 C 4,3 km/h (1 Bft)
27/07/2012 06:30 21,6 C 75 % 1012,4 hPa 0,0 mm 5,4 km/h (2 Bft) SO 225 0 min 0 W/m 17,0 C 21,6 C 8,6 km/h (2 Bft)
27/07/2012 06:40 21,4 C 75 % 1012,3 hPa 0,0 mm 1,8 km/h (1 Bft) S 180 0 min 0 W/m 16,8 C 21,4 C 4,0 km/h (1 Bft)
27/07/2012 06:50 21,3 C 75 % 1012,1 hPa 0,0 mm 0,0 km/h (0 Bft) S 180 0 min 0 W/m 16,7 C 21,3 C 0,0 km/h (0 Bft)
27/07/2012 07:00 21,2 C 75 % 1011,9 hPa 0,0 mm 0,0 km/h (0 Bft) S 180 0 min 0 W/m 16,6 C 21,2 C 0,0 km/h (0 Bft)
27/07/2012 07:10 21,1 C 75 % 1011,6 hPa 0,0 mm 0,0 km/h (0 Bft) S 180 0 min 0 W/m 16,5 C 21,1 C 0,0 km/h (0 Bft)
27/07/2012 07:20 20,9 C 75 % 1011,5 hPa 0,0 mm 0,0 km/h (0 Bft) S-SE 157 0 min 0 W/m 16,3 C 20,9 C 0,0 km/h (0 Bft)
27/07/2012 07:30 20,8 C 77 % 1011,0 hPa 0,0 mm 1,1 km/h (1 Bft) E-NE 67 0 min 0 W/m 16,6 C 20,8 C 3,2 km/h (1 Bft)
27/07/2012 07:40 20,8 C 78 % 1011,4 hPa 0,0 mm 0,0 km/h (0 Bft) S 180 0 min 0 W/m 16,8 C 20,8 C 0,0 km/h (0 Bft)
27/07/2012 07:50 20,8 C 78 % 1011,4 hPa 0,0 mm 3,6 km/h (1 Bft) SE 135 0 min 0 W/m 16,8 C 20,8 C 3,6 km/h (1 Bft)
27/07/2012 08:00 21,1 C 78 % 1011,3 hPa 0,0 mm 2,2 km/h (1 Bft) SE 135 0 min 0 W/m 17,1 C 21,1 C 2,2 km/h (1 Bft)
27/07/2012 08:10 21,4 C 77 % 1011,5 hPa 0,0 mm 0,0 km/h (0 Bft) O-SO 247 0 min 0 W/m 17,2 C 21,4 C 0,0 km/h (0 Bft)
27/07/2012 08:20 21,8 C 77 % 1011,8 hPa 0,0 mm 1,8 km/h (1 Bft) SO 225 0 min 0 W/m 17,6 C 21,8 C 4,0 km/h (1 Bft)
27/07/2012 08:30 22,3 C 75 % 1011,7 hPa 0,0 mm 2,9 km/h (1 Bft) SO 225 0 min 0 W/m 17,6 C 22,3 C 3,2 km/h (1 Bft)
27/07/2012 08:40 22,8 C 75 % 1011,9 hPa 0,0 mm 1,1 km/h (1 Bft) S 180 0 min 0 W/m 18,1 C 22,8 C 4,3 km/h (1 Bft)
27/07/2012 08:50 23,3 C 74 % 1011,9 hPa 0,0 mm 2,5 km/h (1 Bft) S-SO 202 0 min 0 W/m 18,4 C 23,3 C 7,2 km/h (2 Bft)
27/07/2012 09:00 23,7 C 72 % 1011,9 hPa 0,0 mm 3,2 km/h (1 Bft) SO 225 0 min 0 W/m 18,3 C 23,7 C 7,9 km/h (2 Bft)
27/07/2012 09:10 24,2 C 71 % 1012,1 hPa 0,0 mm 2,5 km/h (1 Bft) SO 225 0 min 0 W/m 18,6 C 24,2 C 6,5 km/h (2 Bft)
27/07/2012 09:20 24,6 C 70 % 1012,1 hPa 0,0 mm 4,0 km/h (1 Bft) S-SE 157 0 min 0 W/m 18,8 C 24,6 C 7,6 km/h (2 Bft)
27/07/2012 09:30 24,9 C 68 % 1012,2 hPa 0,0 mm 7,9 km/h (2 Bft) SO 225 0 min 0 W/m 18,6 C 24,9 C 9,4 km/h (2 Bft)
27/07/2012 09:40 25,3 C 68 % 1012,2 hPa 0,0 mm 7,6 km/h (2 Bft) S 180 0 min 0 W/m 19,0 C 25,3 C 13,3 km/h (3 Bft)
27/07/2012 09:50 25,8 C 66 % 1012,2 hPa 0,0 mm 6,1 km/h (2 Bft) SO 225 0 min 0 W/m 19,0 C 25,8 C 10,4 km/h (2 Bft)
27/07/2012 10:00 26,0 C 65 % 1012,4 hPa 0,0 mm 7,2 km/h (2 Bft) S 180 0 min 0 W/m 18,9 C 26,0 C 14,0 km/h (3 Bft)
27/07/2012 10:10 25,8 C 66 % 1012,5 hPa 0,0 mm 6,1 km/h (2 Bft) SO 225 0 min 0 W/m 19,0 C 25,8 C 7,6 km/h (2 Bft)
27/07/2012 10:20 26,0 C 66 % 1012,4 hPa 0,0 mm 5,8 km/h (2 Bft) S-SO 202 0 min 0 W/m 19,1 C 26,0 C 7,2 km/h (2 Bft)
27/07/2012 10:30 26,4 C 65 % 1012,4 hPa 0,0 mm 8,3 km/h (2 Bft) S-SO 202 0 min 0 W/m 19,3 C 26,4 C 11,9 km/h (2 Bft)
27/07/2012 10:40 26,8 C 64 % 1012,5 hPa 0,0 mm 9,4 km/h (2 Bft) S-SO 202 0 min 0 W/m 19,4 C 26,8 C 12,6 km/h (3 Bft)
27/07/2012 10:50 27,2 C 64 % 1012,5 hPa 0,0 mm 5,0 km/h (1 Bft) SO 225 0 min 0 W/m 19,8 C 27,2 C 8,3 km/h (2 Bft)
27/07/2012 11:00 27,4 C 62 % 1012,6 hPa 0,0 mm 6,1 km/h (2 Bft) S 180 0 min 0 W/m 19,5 C 27,4 C 7,2 km/h (2 Bft)
27/07/2012 11:10 27,8 C 61 % 1012,6 hPa 0,0 mm 2,9 km/h (1 Bft) O-SO 247 0 min 0 W/m 19,6 C 27,8 C 4,0 km/h (1 Bft)
27/07/2012 11:20 27,7 C 60 % 1012,7 hPa 0,0 mm 1,4 km/h (1 Bft) O-SO 247 0 min 0 W/m 19,2 C 27,7 C 4,3 km/h (1 Bft)
27/07/2012 11:30 27,6 C 59 % 1012,7 hPa 0,0 mm 2,2 km/h (1 Bft) O-SO 247 0 min 0 W/m 18,8 C 27,6 C 6,1 km/h (2 Bft)
27/07/2012 11:40 27,6 C 60 % 1012,7 hPa 0,0 mm 3,2 km/h (1 Bft) O-SO 247 0 min 0 W/m 19,1 C 27,6 C 3,6 km/h (1 Bft)
27/07/2012 11:50 28,0 C 60 % 1012,7 hPa 0,0 mm 2,5 km/h (1 Bft) O-SO 247 0 min 0 W/m 19,5 C 28,0 C 4,0 km/h (1 Bft)
27/07/2012 12:00 28,6 C 58 % 1012,8 hPa 0,0 mm 9,0 km/h (2 Bft) SO 225 0 min 0 W/m 19,5 C 28,6 C 12,6 km/h (3 Bft)
27/07/2012 12:10 28,8 C 56 % 1012,7 hPa 0,0 mm 5,4 km/h (2 Bft) SO 225 0 min 0 W/m 19,1 C 28,8 C 8,3 km/h (2 Bft)
27/07/2012 12:20 28,6 C 56 % 1012,7 hPa 0,0 mm 4,3 km/h (1 Bft) SO 225 0 min 0 W/m 18,9 C 28,6 C 10,4 km/h (2 Bft)
27/07/2012 12:30 28,4 C 55 % 1012,9 hPa 0,0 mm 7,9 km/h (2 Bft) S 180 0 min 0 W/m 18,5 C 28,4 C 9,4 km/h (2 Bft)
27/07/2012 12:40 28,1 C 53 % 1013,0 hPa 0,0 mm 4,3 km/h (1 Bft) S-SO 202 0 min 0 W/m 17,6 C 28,1 C 6,5 km/h (2 Bft)
27/07/2012 12:50 27,4 C 54 % 1013,0 hPa 0,0 mm 5,8 km/h (2 Bft) SO 225 0 min 0 W/m 17,3 C 27,4 C 7,6 km/h (2 Bft)
27/07/2012 13:00 26,5 C 59 % 1013,1 hPa 0,0 mm 3,2 km/h (1 Bft) O-SO 247 0 min 0 W/m 17,8 C 26,5 C 8,6 km/h (2 Bft)
27/07/2012 13:10 24,9 C 66 % 1013,1 hPa 0,1 mm 2,5 km/h (1 Bft) O 270 0 min 0 W/m 18,1 C 24,9 C 6,1 km/h (2 Bft)
27/07/2012 13:20 24,0 C 70 % 1013,3 hPa 0,0 mm 1,1 km/h (1 Bft) S-SO 202 0 min 0 W/m 18,2 C 24,0 C 3,6 km/h (1 Bft)
27/07/2012 13:30 23,4 C 75 % 1013,2 hPa 0,0 mm 1,8 km/h (1 Bft) SO 225 0 min 0 W/m 18,7 C 23,4 C 4,0 km/h (1 Bft)
27/07/2012 13:40 23,1 C 77 % 1013,4 hPa 0,0 mm 2,2 km/h (1 Bft) S 180 0 min 0 W/m 18,8 C 23,1 C 6,5 km/h (2 Bft)
27/07/2012 13:50 23,1 C 78 % 1013,4 hPa 0,0 mm 2,5 km/h (1 Bft) S 180 0 min 0 W/m 19,0 C 23,1 C 6,1 km/h (2 Bft)
27/07/2012 14:00 23,2 C 78 % 1013,5 hPa 0,0 mm 2,5 km/h (1 Bft) SO 225 0 min 0 W/m 19,1 C 23,2 C 6,5 km/h (2 Bft)
27/07/2012 14:10 23,1 C 77 % 1013,5 hPa 0,0 mm 5,0 km/h (1 Bft) S-SO 202 0 min 0 W/m 18,8 C 23,1 C 6,8 km/h (2 Bft)
27/07/2012 14:20 22,9 C 78 % 1013,4 hPa 0,0 mm 2,5 km/h (1 Bft) O 270 0 min 0 W/m 18,9 C 22,9 C 7,2 km/h (2 Bft)
27/07/2012 14:30 22,7 C 78 % 1013,4 hPa 0,0 mm 0,7 km/h (0 Bft) S 180 0 min 0 W/m 18,7 C 22,7 C 2,9 km/h (1 Bft)
27/07/2012 14:40 22,5 C 79 % 1013,4 hPa 0,0 mm 3,2 km/h (1 Bft) S-SO 202 0 min 0 W/m 18,7 C 22,5 C 6,5 km/h (2 Bft)
27/07/2012 14:50 22,4 C 79 % 1013,4 hPa 0,0 mm 3,2 km/h (1 Bft) S-SO 202 0 min 0 W/m 18,6 C 22,4 C 3,6 km/h (1 Bft)
27/07/2012 15:00 22,6 C 79 % 1013,4 hPa 0,0 mm 2,2 km/h (1 Bft) SO 225 0 min 0 W/m 18,8 C 22,6 C 4,3 km/h (1 Bft)
27/07/2012 15:10 22,7 C 78 % 1013,3 hPa 0,0 mm 0,4 km/h (0 Bft) O-SO 247 0 min 0 W/m 18,7 C 22,7 C 3,2 km/h (1 Bft)
27/07/2012 15:20 22,9 C 76 % 1013,4 hPa 0,0 mm 2,5 km/h (1 Bft) SO 225 0 min 0 W/m 18,4 C 22,9 C 6,8 km/h (2 Bft)
27/07/2012 15:30 22,9 C 75 % 1013,5 hPa 0,0 mm 5,4 km/h (2 Bft) SO 225 0 min 0 W/m 18,2 C 22,9 C 6,1 km/h (2 Bft)
27/07/2012 15:40 23,2 C 75 % 1013,4 hPa 0,0 mm 1,1 km/h (1 Bft) S-SO 202 0 min 0 W/m 18,5 C 23,2 C 4,3 km/h (1 Bft)
27/07/2012 15:50 23,8 C 73 % 1013,3 hPa 0,0 mm 3,2 km/h (1 Bft) SO 225 0 min 0 W/m 18,7 C 23,8 C 7,6 km/h (2 Bft)
27/07/2012 16:00 24,5 C 71 % 1013,2 hPa 0,0 mm 2,5 km/h (1 Bft) O-SO 247 0 min 0 W/m 18,9 C 24,5 C 6,1 km/h (2 Bft)
27/07/2012 16:10 25,3 C 68 % 1013,1 hPa 0,0 mm 2,2 km/h (1 Bft) SO 225 0 min 0 W/m 19,0 C 25,3 C 4,3 km/h (1 Bft)
27/07/2012 16:20 25,9 C 66 % 1012,9 hPa 0,0 mm 0,0 km/h (0 Bft) O-SO 247 0 min 0 W/m 19,0 C 25,9 C 0,0 km/h (0 Bft)
27/07/2012 16:30 26,4 C 63 % 1012,9 hPa 0,0 mm 5,4 km/h (2 Bft) O 270 0 min 0 W/m 18,8 C 26,4 C 12,6 km/h (3 Bft)
27/07/2012 16:40 26,7 C 62 % 1012,8 hPa 0,0 mm 0,7 km/h (0 Bft) S-SO 202 0 min 0 W/m 18,8 C 26,7 C 4,3 km/h (1 Bft)
27/07/2012 16:50 26,9 C 61 % 1012,7 hPa 0,0 mm 2,5 km/h (1 Bft) O 270 0 min 0 W/m 18,7 C 26,9 C 6,8 km/h (2 Bft)
27/07/2012 17:00 27,2 C 61 % 1012,6 hPa 0,0 mm 3,2 km/h (1 Bft) SO 225 0 min 0 W/m 19,0 C 27,2 C 6,1 km/h (2 Bft)
27/07/2012 17:10 27,2 C 61 % 1012,5 hPa 0,0 mm 2,9 km/h (1 Bft) NO 315 0 min 0 W/m 19,0 C 27,2 C 7,9 km/h (2 Bft)
27/07/2012 17:20 27,4 C 61 % 1012,3 hPa 0,0 mm 4,0 km/h (1 Bft) S-SO 202 0 min 0 W/m 19,2 C 27,4 C 9,4 km/h (2 Bft)
27/07/2012 17:30 27,6 C 60 % 1012,1 hPa 0,0 mm 4,0 km/h (1 Bft) S 180 0 min 0 W/m 19,1 C 27,6 C 4,0 km/h (1 Bft)
27/07/2012 17:40 27,8 C 58 % 1011,9 hPa 0,0 mm 1,1 km/h (1 Bft) O-SO 247 0 min 0 W/m 18,8 C 27,8 C 4,3 km/h (1 Bft)
27/07/2012 17:50 27,5 C 59 % 1011,8 hPa 0,0 mm 0,0 km/h (0 Bft) O-SO 247 0 min 0 W/m 18,8 C 27,5 C 3,2 km/h (1 Bft)
27/07/2012 18:00 27,4 C 59 % 1011,6 hPa 0,0 mm 1,4 km/h (1 Bft) O 270 0 min 0 W/m 18,7 C 27,4 C 3,6 km/h (1 Bft)
27/07/2012 18:10 27,5 C 58 % 1011,5 hPa 0,0 mm 4,0 km/h (1 Bft) S-SO 202 0 min 0 W/m 18,5 C 27,5 C 4,3 km/h (1 Bft)
27/07/2012 18:20 27,3 C 58 % 1011,5 hPa 0,0 mm 1,1 km/h (1 Bft) O-SO 247 0 min 0 W/m 18,3 C 27,3 C 4,0 km/h (1 Bft)
27/07/2012 18:30 27,3 C 59 % 1011,4 hPa 0,0 mm 6,8 km/h (2 Bft) O-SO 247 0 min 0 W/m 18,6 C 27,3 C 10,1 km/h (2 Bft)
27/07/2012 18:40 26,9 C 59 % 1011,5 hPa 0,0 mm 5,0 km/h (1 Bft) SO 225 0 min 0 W/m 18,2 C 26,9 C 6,5 km/h (2 Bft)
27/07/2012 18:50 26,9 C 59 % 1011,5 hPa 0,0 mm 5,4 km/h (2 Bft) SO 225 0 min 0 W/m 18,2 C 26,9 C 8,3 km/h (2 Bft)
27/07/2012 19:00 26,5 C 59 % 1011,7 hPa 0,0 mm 4,3 km/h (1 Bft) SO 225 0 min 0 W/m 17,8 C 26,5 C 8,3 km/h (2 Bft)
27/07/2012 19:10 26,3 C 59 % 1011,7 hPa 0,0 mm 5,0 km/h (1 Bft) O-NO 292 0 min 0 W/m 17,6 C 26,3 C 9,7 km/h (2 Bft)
27/07/2012 19:20 25,9 C 61 % 1011,6 hPa 0,0 mm 1,4 km/h (1 Bft) O-SO 247 0 min 0 W/m 17,8 C 25,9 C 3,2 km/h (1 Bft)
27/07/2012 19:30 25,9 C 60 % 1011,7 hPa 0,0 mm 9,7 km/h (2 Bft) SO 225 0 min 0 W/m 17,5 C 25,9 C 15,5 km/h (3 Bft)
27/07/2012 19:40 25,8 C 61 % 1011,7 hPa 0,0 mm 3,6 km/h (1 Bft) SO 225 0 min 0 W/m 17,7 C 25,8 C 8,3 km/h (2 Bft)
27/07/2012 19:50 25,9 C 62 % 1011,8 hPa 0,0 mm 4,0 km/h (1 Bft) S-SO 202 0 min 0 W/m 18,0 C 25,9 C 4,0 km/h (1 Bft)
27/07/2012 20:00 26,1 C 62 % 1011,9 hPa 0,0 mm 1,8 km/h (1 Bft) SO 225 0 min 0 W/m 18,2 C 26,1 C 7,9 km/h (2 Bft)
27/07/2012 20:10 26,1 C 61 % 1011,9 hPa 0,0 mm 2,5 km/h (1 Bft) O 270 0 min 0 W/m 18,0 C 26,1 C 6,1 km/h (2 Bft)
27/07/2012 20:20 25,8 C 61 % 1012,0 hPa 0,0 mm 3,6 km/h (1 Bft) O-NO 292 0 min 0 W/m 17,7 C 25,8 C 3,6 km/h (1 Bft)
27/07/2012 20:30 25,2 C 63 % 1012,1 hPa 0,0 mm 1,4 km/h (1 Bft) SO 225 0 min 0 W/m 17,6 C 25,2 C 4,0 km/h (1 Bft)
27/07/2012 20:40 24,8 C 63 % 1012,1 hPa 0,0 mm 0,0 km/h (0 Bft) O-SO 247 0 min 0 W/m 17,3 C 24,8 C 0,0 km/h (0 Bft)
27/07/2012 20:50 24,4 C 64 % 1012,2 hPa 0,0 mm 0,0 km/h (0 Bft) O-SO 247 0 min 0 W/m 17,1 C 24,4 C 4,0 km/h (1 Bft)
27/07/2012 21:00 24,0 C 66 % 1012,4 hPa 0,0 mm 5,4 km/h (2 Bft) O-NO 292 0 min 0 W/m 17,2 C 24,0 C 11,2 km/h (2 Bft)
27/07/2012 21:10 23,4 C 67 % 1012,5 hPa 0,0 mm 1,4 km/h (1 Bft) S-SO 202 0 min 0 W/m 16,9 C 23,4 C 4,0 km/h (1 Bft)
27/07/2012 21:20 22,9 C 68 % 1012,7 hPa 0,0 mm 2,9 km/h (1 Bft) O 270 0 min 0 W/m 16,7 C 22,9 C 3,6 km/h (1 Bft)
27/07/2012 21:30 22,4 C 70 % 1012,8 hPa 0,0 mm 0,0 km/h (0 Bft) O 270 0 min 0 W/m 16,7 C 22,4 C 0,0 km/h (0 Bft)
27/07/2012 21:40 22,0 C 71 % 1012,8 hPa 0,0 mm 0,0 km/h (0 Bft) O-NO 292 0 min 0 W/m 16,5 C 22,0 C 0,0 km/h (0 Bft)
27/07/2012 21:50 21,6 C 72 % 1013,1 hPa 0,0 mm 0,0 km/h (0 Bft) S-SO 202 0 min 0 W/m 16,3 C 21,6 C 3,6 km/h (1 Bft)
27/07/2012 22:00 21,1 C 72 % 1013,1 hPa 0,0 mm 0,0 km/h (0 Bft) O-SO 247 0 min 0 W/m 15,8 C 21,1 C 0,0 km/h (0 Bft)
27/07/2012 22:10 20,8 C 72 % 1012,9 hPa 0,0 mm 0,7 km/h (0 Bft) O-NO 292 0 min 0 W/m 15,6 C 20,8 C 0,7 km/h (0 Bft)
27/07/2012 22:20 20,4 C 74 % 1012,9 hPa 0,0 mm 0,0 km/h (0 Bft) O 270 0 min 0 W/m 15,6 C 20,4 C 0,0 km/h (0 Bft)
27/07/2012 22:30 20,1 C 75 % 1012,8 hPa 0,0 mm 1,1 km/h (1 Bft) O 270 0 min 0 W/m 15,5 C 20,1 C 4,0 km/h (1 Bft)
27/07/2012 22:40 19,8 C 75 % 1012,8 hPa 0,0 mm 0,7 km/h (0 Bft) O 270 0 min 0 W/m 15,2 C 19,8 C 3,6 km/h (1 Bft)
27/07/2012 22:50 19,5 C 75 % 1012,8 hPa 0,0 mm 0,0 km/h (0 Bft) O 270 0 min 0 W/m 14,9 C 19,5 C 0,0 km/h (0 Bft)
27/07/2012 23:00 19,3 C 76 % 1012,8 hPa 0,0 mm 0,0 km/h (0 Bft) NO 315 0 min 0 W/m 15,0 C 19,3 C 0,0 km/h (0 Bft)
27/07/2012 23:10 19,1 C 77 % 1012,6 hPa 0,0 mm 0,0 km/h (0 Bft) O-NO 292 0 min 0 W/m 15,0 C 19,1 C 0,0 km/h (0 Bft)
27/07/2012 23:20 18,8 C 77 % 1012,5 hPa 0,0 mm 0,0 km/h (0 Bft) O-NO 292 0 min 0 W/m 14,7 C 18,8 C 0,0 km/h (0 Bft)
27/07/2012 23:30 18,6 C 78 % 1012,6 hPa 0,0 mm 0,0 km/h (0 Bft) O-NO 292 0 min 0 W/m 14,7 C 18,6 C 0,0 km/h (0 Bft)
27/07/2012 23:40 18,4 C 78 % 1012,4 hPa 0,0 mm 0,0 km/h (0 Bft) O-NO 292 0 min 0 W/m 14,5 C 18,4 C 0,0 km/h (0 Bft)
27/07/2012 23:50 18,1 C 79 % 1012,3 hPa 0,0 mm 0,0 km/h (0 Bft) O-NO 292 0 min 0 W/m 14,4 C 18,1 C 0,0 km/h (0 Bft)
_ Min-Heure 23:50 12:40 05:50 - 23:50 - - - - 23:50 23:50 23:50
Minimum _ 18,1 C 53 % 1010,8 hPa - 0,0 km/h (0 Bft) - - - - 14,4 C 18,1 C 0,0 km/h (0 Bft)
_ Max-Heure 12:10 23:50 15:30 13:10 19:30 - - 23:50 23:50 10:50 12:10 19:30
Maximum _ 28,8 C 79 % 1013,5 hPa 0,1 mm 9,7 km/h
SO (2 Bft)
- - 0 min 0 W/m 19,8 C 28,8 C 15,5 km/h
SO (3 Bft)
Moyenne _ 23,9 C 69 % 1012,5 hPa #0,1 mm 2,4 km/h (1 Bft) SO - #0 min. 0 W/m 17,8 C 23,9 C 4,6 km/h (1 Bft)
Saint Bonnet de Bellac- Haute Vienne - France